DW1289 Weather Reports


time (UTC)temp
F
wind
direction
speed
knots
gust
knots
rain 1hr
in
rain 24hr
in
rain mn
in
humidity
%
barometer
mb
20260506185016 65 45 1.7 6.1 0.00 0.90 0.54 55 1013.6
20260506184036 64 68 1.7 5.2 0.00 0.91 0.54 56 1013.7
20260506183016 63 315 1.7 7.0 0.00 0.93 0.54 52 1014.0
20260506182016 63 0 1.7 7.8 0.00 0.93 0.54 49 1013.6
20260506181016 62 45 1.7 4.3 0.00 0.94 0.54 53 1013.7
20260506180036 63 45 2.6 7.0 0.00 0.94 0.54 52 1013.8
20260506175016 63 45 2.6 8.7 0.00 0.94 0.54 51 1014.0
20260506174016 63 45 3.5 7.8 0.00 0.94 0.54 52 1013.6
20260506173016 62 45 3.5 9.6 0.00 0.94 0.54 53 1013.7
20260506172016 62 68 3.5 7.8 0.00 0.94 0.54 55 1014.0
20260506171016 62 45 2.6 8.7 0.00 0.94 0.54 53 1014.2
20260506170016 62 45 2.6 7.8 0.00 0.94 0.54 56 1014.3
20260506165016 61 68 2.6 9.6 0.00 0.94 0.54 56 1014.2
20260506164036 61 45 4.3 9.6 0.00 0.94 0.54 56 1014.6
20260506163016 60 45 4.3 10.4 0.00 0.94 0.54 53 1014.4
20260506162016 60 45 3.5 8.7 0.00 0.94 0.54 54 1014.6
20260506161056 60 45 3.5 8.7 0.00 0.94 0.54 56 1014.6
20260506160016 60 45 2.6 9.6 0.00 0.94 0.54 55 1014.6
20260506155036 60 23 2.6 8.7 0.00 0.94 0.54 56 1014.6
20260506154016 59 45 3.5 9.6 0.00 0.94 0.54 61 1014.3
20260506153016 58 68 3.5 7.8 0.00 0.94 0.54 59 1014.2
20260506152016 58 45 3.5 7.8 0.00 0.94 0.54 58 1013.8
20260506151016 56 338 3.5 8.7 0.00 0.94 0.54 64 1013.6
20260506150016 55 68 1.7 6.1 0.00 0.94 0.54 66 1013.8
20260506145016 55 68 3.5 9.6 0.00 0.94 0.54 66 1014.0
20260506144016 54 45 3.5 8.7 0.00 0.94 0.54 68 1013.6
20260506143016 54 23 1.7 7.8 0.00 0.94 0.54 73 1013.7
20260506142016 53 45 2.6 7.0 0.00 0.94 0.54 73 1013.6
20260506141016 52 45 1.7 7.0 0.00 0.94 0.54 80 1013.5
20260506140016 51 315 0.9 4.3 0.00 0.94 0.54 83 1013.3
20260506135016 50 338 1.7 7.0 0.00 0.94 0.54 84 1013.4
20260506134036 49 315 1.7 6.1 0.00 0.94 0.54 84 1013.1
20260506133017 49 45 0.9 4.3 0.00 0.94 0.54 85 1013.2
20260506132016 48 45 0.9 3.5 0.00 0.94 0.54 85 1012.9
20260506131016 48 338 0.9 5.2 0.00 0.94 0.54 86 1013.1
20260506130016 48 0 0.9 2.6 0.00 0.94 0.54 86 1012.7
20260506125016 47 338 0.9 4.3 0.00 0.94 0.54 86 1012.7
20260506124016 47 45 0.9 3.5 0.00 0.94 0.54 87 1012.3
20260506123016 47 68 0.9 2.6 0.00 0.94 0.54 87 1012.4
20260506122016 47 45 1.7 6.1 0.00 0.94 0.54 87 1012.6
20260506121016 47 45 0.9 7.0 0.00 0.94 0.54 88 1012.4
20260506120036 47 68 0.9 5.2 0.00 0.94 0.54 88 1012.3
20260506115016 47 338 0.9 3.5 0.00 0.94 0.54 88 1012.3
20260506114016 46 68 0.9 5.2 0.00 0.94 0.54 88 1012.4
20260506113016 46 0 1.7 4.3 0.00 0.94 0.54 88 1012.1
20260506112016 46 338 0.9 4.3 0.00 0.94 0.54 88 1011.7
20260506111016 46 68 0.9 4.3 0.00 0.94 0.54 87 1011.3
20260506110016 47 45 1.7 5.2 0.00 0.94 0.54 87 1011.0
20260506105016 47 315 0.9 3.5 0.00 0.94 0.54 88 1011.4
20260506104036 47 23 0.9 3.5 0.00 0.94 0.54 88 1011.0
20260506103036 47 45 1.7 5.2 0.00 0.94 0.54 88 1011.0
20260506102016 47 315 1.7 7.0 0.00 0.94 0.54 88 1010.9
20260506101036 48 68 2.6 7.0 0.00 0.94 0.54 89 1010.2
20260506100016 48 23 1.7 7.0 0.00 0.94 0.54 89 1010.1
20260506095016 48 338 1.7 7.0 0.00 0.94 0.54 90 1010.4
20260506094016 48 0 1.7 5.2 0.00 0.94 0.54 90 1009.9
20260506093016 49 23 1.7 5.2 0.00 0.94 0.54 91 1009.7
20260506092036 49 338 0.9 5.2 0.00 0.94 0.54 91 1009.8
20260506091036 49 45 3.5 11.3 0.00 0.94 0.54 91 1009.6
20260506090016 49 45 3.5 13.9 0.00 0.94 0.54 92 1009.6
20260506085016 50 45 2.6 8.7 0.00 0.94 0.54 92 1009.6
20260506084016 50 45 3.5 10.4 0.00 0.94 0.54 92 1009.4
20260506083016 50 68 1.7 5.2 0.00 0.94 0.54 92 1009.3
20260506082016 50 45 1.7 5.2 0.01 0.94 0.54 92 1009.2
20260506081016 50 45 3.5 8.7 0.01 0.94 0.54 92 1008.9
20260506073016 51 338 1.7 8.7 0.10 0.94 0.54 92 1008.2
20260506072016 51 68 0.9 7.0 0.12 0.93 0.53 92 1008.1
20260506071016 52 68 1.7 6.1 0.14 0.93 0.53 92 1007.7
20260506062016 53 338 1.7 8.7 0.08 0.81 0.41 91 1007.7
20260506061016 53 315 2.6 7.8 0.11 0.79 0.39 91 1007.7
20260506051016 60 0.0 0.0 0.28 0.68 0.28 92 1006.8
20260506045016 60 0.0 0.0 0.20 0.60 0.20 92 1006.6
20260506044016 60 0.0 1.7 0.19 0.57 0.17 92 1006.7
20260506043016 60 270 0.9 3.5 0.17 0.55 0.15 92 1006.7
20260506042016 60 270 1.7 4.3 0.04 0.42 0.03 92 1006.9
20260506041016 60 0.0 2.6 0.02 0.40 0.00 92 1006.4
20260506040036 60 248 0.9 2.6 0.02 0.40 0.00 92 1006.5
20260506035016 60 248 0.9 3.5 0.03 0.40 0.40 92 1006.5
20260506034016 60 248 0.9 2.6 0.02 0.38 0.39 92 1006.5
20260506033016 60 225 0.9 3.5 0.03 0.38 0.38 92 1006.6
20260506032017 60 248 0.9 4.3 0.04 0.38 0.38 92 1006.8
20260506031016 60 248 1.7 3.5 0.04 0.38 0.38 92 1007.1
20260506030016 61 248 2.6 7.0 0.04 0.38 0.38 92 1007.2
20260506025036 61 248 3.5 7.0 0.03 0.37 0.37 92 1007.3
20260506024036 61 248 3.5 7.0 0.02 0.36 0.36 92 1007.4
20260506023016 61 248 4.3 10.4 0.01 0.35 0.35 91 1007.5
20260506022016 62 248 4.3 10.4 0.00 0.34 0.34 92 1007.5
20260506021016 62 248 5.2 12.2 0.00 0.34 0.34 92 1007.5
20260506020016 62 248 3.5 7.8 0.00 0.34 0.34 92 1007.5
20260506015016 62 248 2.6 6.1 0.00 0.34 0.34 92 1007.4
20260506014017 62 248 3.5 8.7 0.00 0.34 0.34 91 1007.4
20260506013016 62 248 2.6 7.0 0.00 0.34 0.34 91 1007.1
20260506012016 62 180 0.9 4.3 0.00 0.34 0.34 91 1006.9
20260506011016 62 225 0.9 3.5 0.01 0.34 0.34 91 1007.0
20260506010016 62 248 0.9 4.3 0.01 0.34 0.34 91 1007.0
20260506005016 62 225 0.9 5.2 0.02 0.34 0.34 91 1006.7
20260506004016 62 0.0 0.0 0.03 0.34 0.34 90 1006.7
20260506003016 63 0.0 0.0 0.08 0.34 0.34 90 1006.8
20260506002016 63 0.0 1.7 0.10 0.34 0.34 90 1006.8
20260506001016 63 203 0.9 3.5 0.11 0.33 0.33 90 1006.8
20260506000016 63 248 0.9 2.6 0.12 0.33 0.33 90 1006.8
20260505235016 63 248 0.9 2.6 0.12 0.32 0.32 91 1006.8
20260505234016 64 0.0 2.6 0.11 0.31 0.31 91 1006.9
20260505233016 64 225 0.9 4.3 0.08 0.26 0.26 91 1006.9
20260505232016 64 0.0 0.0 0.08 0.24 0.25 90 1007.2
20260505231036 64 0.0 0.0 0.07 0.22 0.22 90 1007.1
20260505230036 64 0.0 0.0 0.11 0.21 0.21 90 1007.1
20260505225016 64 0.0 0.0 0.11 0.20 0.20 90 1006.9
20260505224016 64 0.0 0.0 0.11 0.20 0.20 90 1007.1
20260505223016 64 0.0 0.0 0.09 0.18 0.18 90 1007.4
20260505222016 65 0.0 1.7 0.07 0.16 0.16 90 1007.5
20260505221016 65 0.0 1.7 0.06 0.15 0.15 90 1007.5
20260505220016 65 0.0 1.7 0.01 0.10 0.10 90 1007.6
20260505215016 65 0.0 0.0 0.00 0.09 0.09 90 1007.2
20260505214016 65 0.0 0.9 0.00 0.09 0.09 90 1007.0
20260505213036 64 68 0.9 2.6 0.00 0.09 0.09 89 1007.1
20260505212016 64 0.0 1.7 0.00 0.09 0.09 88 1007.3
20260505211016 64 0.0 1.7 0.00 0.09 0.09 88 1007.5
20260505210036 64 0.0 0.9 0.00 0.09 0.09 88 1007.7
20260505205016 64 0.0 0.0 0.00 0.09 0.09 88 1007.8
20260505204016 64 0.0 0.0 0.00 0.09 0.09 88 1007.9
20260505203016 64 0.0 0.0 0.00 0.09 0.09 87 1008.1
20260505202016 64 0.0 0.0 0.00 0.09 0.09 87 1008.3
20260505201016 64 0.0 0.0 0.01 0.09 0.09 86 1008.4
20260505200016 64 0.0 0.0 0.02 0.09 0.09 85 1008.5
20260505195016 64 0.0 0.0 0.05 0.09 0.09 85 1008.7
20260505194016 64 0.0 0.0 0.06 0.09 0.09 84 1008.8
20260505193016 65 0.0 2.6 0.08 0.09 0.09 84 1008.8
20260505192016 65 248 0.9 2.6 0.08 0.09 0.09 84 1008.9
20260505191016 65 248 0.9 2.6 0.08 0.08 0.08 83 1008.9
20260505190036 65 248 0.9 3.5 0.07 0.07 0.07 82 1009.3